Lid_Strength_Index
2 3 3 4 8 8 10 9 7 8 7 5 5 6 6 6 7 9 1 -0 -1 -1 -1 -1 -1 -2 -2 -2 -2 -2 -2 -2 -2 -2 -2 -2 -2 -2 -2 -2 -2 -2 -2 -2 -2 -2 -2 -2 -2
4 4 2 4 9 11 10 9 9 7 6 4 5 5 6 7 4 4 2 -0 -1 -1 -1 -1 -1 -1 -1 -1 -2 -2 -2 -2 -2 -2 -2 -2 -2 -2 -2 -2 -2 -2 -2 -2 -2 -2 -2 -2 -2
4 4 5 6 9 11 10 9 8 6 5 5 6 4 5 6 4 3 0 -0 -1 -1 -1 -1 -1 -1 -2 -2 -2 -2 -2 -2 -3 -2 -2 -2 -2 -2 -2 -2 -2 -2 -2 -2 -2 -2 -2 -2 -2
4 3 5 8 10 9 9 8 7 6 5 4 5 6 4 2 3 1 -0 -1 -1 -1 -1 -1 -1 -2 -2 -2 -2 -2 -2 -2 -2 -3 -2 -2 -2 -2 -2 -2 -2 -2 -2 -2 -2 -2 -2 -2 -2
3 4 7 9 9 8 8 7 6 7 6 6 5 6 5 3 1 0 -0 -0 -0 -1 -1 -1 -1 -1 -1 -2 -2 -2 -2 -2 -2 -2 -2 -2 -2 -2 -2 -2 -2 -2 -2 -2 -2 -2 -2 -2 -2
4 5 9 11 9 8 7 7 6 6 6 6 6 6 5 2 1 1 -0 -0 -1 -1 -1 -1 0 -0 -1 -1 -2 -2 -2 -2 -2 -2 -2 -2 -2 -2 -2 -2 -2 -2 -2 -2 -2 -2 -2 -2 -2
6 7 10 9 9 9 7 6 6 6 6 6 5 7 4 3 1 0 -0 -1 -1 -1 -1 -1 -1 -1 1 -0 -1 -1 -2 -2 -2 -2 -2 -2 -2 -2 -2 -2 -2 -2 -2 -2 -2 -2 -2 -2 -2
5 6 10 9 10 9 7 6 6 6 7 4 4 7 7 3 1 0 0 -0 -0 -1 -1 -1 -1 -1 -1 -2 1 -0 -1 -1 -2 -1 -1 -1 -1 -1 -1 -1 -2 -2 -2 -2 -2 -2 -2 -2 -2
6 9 11 10 9 8 7 7 7 6 6 5 4 5 3 2 1 1 2 1 1 0 -0 -1 -1 -1 -1 -1 -1 0 -1 -1 -0 -0 0 -0 -2 -2 -1 -1 -1 -2 -2 -2 -2 -2 -2 -2 -2
6 9 9 7 7 7 7 7 7 6 6 6 5 3 2 2 2 3 3 3 2 1 0 -1 -1 -1 -1 -1 -1 -2 -1 -2 -2 -1 -2 -1 -2 -2 -1 -1 -1 -1 -1 -2 -2 -1 -2 -1 -2
6 9 7 7 6 7 8 8 7 7 7 6 6 4 3 3 3 3 3 2 2 1 0 -0 -1 -1 -1 -1 -1 -1 -1 -2 -2 -2 -2 -2 -1 -2 -2 -2 -2 -2 -0 -2 -1 -1 -2 -1 -2
8 6 6 6 6 7 7 8 8 7 5 5 5 4 3 4 3 3 3 2 1 1 1 -0 -1 -1 -1 -1 -1 -1 -1 -1 -1 -2 -2 -2 -1 -1 -1 -1 -1 -1 -2 -1 -2 -2 -1 -1 -1
8 7 6 6 6 6 6 6 6 6 5 5 6 5 4 3 3 2 2 1 1 1 1 0 -1 -1 -1 -1 -1 -1 -1 -1 -1 -1 -2 -2 -1 -1 -1 -1 -1 -1 -1 -1 -1 -1 -1 -1 -1
7 7 7 6 6 6 7 7 6 5 4 4 5 5 4 3 3 2 2 2 2 1 1 -0 -0 -1 -1 -1 -1 -1 -1 -1 -1 -1 -1 -2 -1 -1 -1 -0 0 -1 -1 -2 -1 -1 -1 -1 -1
7 9 8 7 7 7 6 9 9 5 4 5 4 4 4 3 2 3 2 2 1 1 0 0 -0 -1 -0 -1 -1 -1 -1 -1 -1 -1 -1 -2 -2 -1 -0 0 0 -1 -1 -1 -1 -1 -1 -1 -1
9 9 11 8 7 7 7 11 6 4 5 5 5 4 4 4 3 2 2 1 1 1 1 0 -0 -0 -0 -0 -1 -1 -1 -1 -1 -1 -1 -1 -1 -1 -1 0 1 -0 -1 -1 -1 -1 -0 -0 -0
10 12 12 10 7 8 9 10 7 5 5 6 5 4 4 4 3 2 1 1 1 1 1 1 0 0 -0 -1 -1 -1 -1 -1 -1 -1 -1 -1 -1 -1 -1 -0 -0 0 -0 -1 -1 -0 -0 0 0
13 13 12 11 9 8 10 10 7 6 6 6 5 5 5 5 5 3 2 1 1 1 0 0 0 0 -0 -0 -0 -1 -0 -1 -1 -1 -1 -1 -1 -1 -1 -1 -1 -0 -0 -0 -0 -0 -0 -0 0
10 11 11 10 8 9 9 9 8 7 7 6 6 5 5 4 3 3 4 2 1 1 1 1 1 0 0 1 1 1 1 0 -0 -1 -1 -1 -1 -1 -1 -1 -1 -1 -0 -0 -0 -0 0 0 -0
10 12 12 10 8 9 9 11 9 8 8 7 7 6 6 5 4 4 3 3 2 1 1 1 1 1 0 0 0 0 0 0 0 -1 -1 -1 -1 -1 -1 -1 -0 -1 -0 -0 -0 0 1 1 -0
11 12 11 11 9 8 10 13 11 10 9 7 6 6 5 5 5 4 4 4 2 2 1 1 1 1 0 0 0 1 0 0 1 1 0 -0 -1 0 0 -1 -1 -0 -0 0 0 0 1 2 1
13 9 10 11 11 14 10 17 13 11 11 9 7 6 6 5 4 4 3 3 3 2 1 1 1 1 1 0 1 1 2 2 2 1 1 1 1 1 0 -1 -1 -0 -0 0 0 -0 0 1 2
11 8 10 10 12 12 12 15 15 11 12 10 8 7 6 5 5 4 3 3 2 2 1 1 1 1 1 1 1 1 2 1 1 1 1 1 1 1 1 -0 -0 -0 -0 -0 -0 0 0 0 1
8 10 10 10 12 17 14 14 17 14 12 10 9 7 6 5 4 4 3 2 2 2 1 1 1 1 1 1 1 1 2 2 2 1 1 1 1 1 1 1 1 -0 -0 0 -0 -0 0 0 0
9 12 17 18 18 17 13 14 15 12 11 10 9 7 6 5 5 4 4 3 2 2 1 2 1 2 1 1 1 1 1 1 2 1 1 1 1 1 2 1 1 1 -0 -0 -0 0 0 0 1
11 12 15 18 18 16 13 17 15 10 9 8 7 6 6 5 5 4 4 3 3 2 2 2 2 2 1 1 1 1 1 1 1 1 1 1 1 1 1 1 1 1 1 -0 -0 0 0 0 0
12 14 9 14 15 17 14 14 12 10 10 9 7 7 7 6 6 5 4 4 3 3 2 1 2 2 1 1 1 1 1 1 1 1 1 1 1 1 0 1 2 1 1 1 0 0 1 1 1
10 8 15 14 19 19 16 15 16 13 12 10 8 7 6 6 5 5 4 3 3 3 3 2 2 2 2 1 1 1 1 1 1 1 1 1 1 0 1 1 2 2 2 2 2 1 1 1 1
12 13 12 12 13 16 17 16 12 12 10 10 9 7 7 6 5 5 4 3 3 3 3 3 3 3 2 2 1 1 1 1 1 1 1 1 1 1 1 1 2 2 3 3 3 2 1 1 1
9 11 12 15 16 14 15 16 10 9 9 8 7 7 6 6 5 5 4 4 4 4 3 4 4 5 4 2 1 1 1 1 1 1 1 1 1 1 1 1 2 2 3 3 4 3 2 2 2